Date_and_time,latitude,longitude,wind_speed,RelWindDirFrom,WindDirFrom,air_pressure,air_temperature,relative_humidity,Temp,platform_speed_wrt_ground,air_pressure_at_mean_sea_level,platform_orientation
2018-09-16 23:40,50.63044,-96.9807716666667,11.8,18.1,330,981.58,8.8,100,15.40,0.0,1008.28,38.0
2018-09-16 23:50,50.6304416666667,-96.9807683333333,13.0,18.8,335,981.85,8.6,100,15.39,0.0,1008.58,38.0
2018-09-17 00:00,50.630445,-96.9807666666667,13.5,20.9,338,981.97,8.5,100,15.38,0.0,1008.71,0.0
2018-09-17 00:10,50.630445,-96.9807683333333,14.9,22.9,335,982.18,8.4,100,15.38,0.0,1008.93,0.0
2018-09-17 00:20,50.6304466666667,-96.98076,11.6,17.1,331,982.50,8.3,100,15.37,0.0,1009.27,0.0
2018-09-17 00:30,50.6304433333333,-96.9807566666667,13.2,18.7,332,982.61,8.1,100,15.37,0.0,1009.40,0.0
2018-09-17 00:40,50.63044,-96.9807616666667,13.1,17.9,335,982.79,8.1,100,15.36,0.0,1009.58,0.0
2018-09-17 00:50,50.6304416666667,-96.9807633333333,12.6,17.8,336,982.87,8.0,100,15.34,0.0,1009.70,0.0
2018-09-17 01:00,50.6304466666667,-96.9807566666667,13.2,19.8,332,983.00,7.9,100,15.33,0.0,1009.86,12.6
2018-09-17 01:10,50.6304416666667,-96.98076,14.1,20.5,333,983.20,7.7,100,15.31,0.0,1010.09,12.6
2018-09-17 01:20,50.6304466666667,-96.9807566666667,12.8,20.1,334,983.50,7.6,100,15.30,0.0,1010.41,12.6
2018-09-17 01:30,50.6304416666667,-96.9807633333333,12.3,17.9,332,983.81,7.5,100,15.29,0.0,1010.74,12.6
2018-09-17 01:40,50.6304466666667,-96.9807633333333,12.5,17.9,334,983.91,7.5,100,15.28,0.0,1010.86,12.6
2018-09-17 01:50,50.6304416666667,-96.98075,13.8,19.9,333,984.06,7.5,100,15.26,0.0,1011.02,12.6
2018-09-17 02:00,50.6304466666667,-96.9807616666667,14.3,20.6,329,984.21,7.4,100,15.24,0.0,1011.18,54.7
2018-09-17 02:10,50.6304483333333,-96.9807566666667,13.4,19.8,331,984.48,7.4,100,15.23,0.0,1011.46,54.7
2018-09-17 02:20,50.6304383333333,-96.9807466666667,13.5,19.1,333,984.68,7.3,100,15.23,0.0,1011.68,54.7
2018-09-17 02:30,50.6304516666667,-96.9807633333333,13.5,21.1,330,984.93,7.3,100,15.22,0.0,1011.94,54.7
2018-09-17 02:40,50.6304466666667,-96.9807633333333,13.6,18.4,328,985.17,7.3,100,15.20,0.0,1012.20,54.7
2018-09-17 02:50,50.6304483333333,-96.9807733333333,12.2,19.4,326,985.48,7.1,100,15.19,0.0,1012.52,54.7
2018-09-17 03:00,50.630445,-96.9807516666667,12.0,17.5,326,985.68,7.0,100,15.18,0.0,1012.75,90.0
2018-09-17 03:10,50.63045,-96.9807583333333,12.9,18.4,324,985.83,6.9,100,15.17,0.0,1012.91,90.0
2018-09-17 03:20,50.6304466666667,-96.9807583333333,12.6,19.3,325,985.99,6.8,100,15.17,0.0,1013.09,90.0
2018-09-17 03:30,50.6304416666667,-96.9807566666667,12.8,19.0,325,986.08,6.7,100,15.16,0.0,1013.18,90.0
2018-09-17 03:40,50.630435,-96.980755,12.8,19.1,327,986.17,6.6,100,15.15,0.0,1013.28,90.0
2018-09-17 03:50,50.63045,-96.9807683333333,12.2,18.3,325,986.37,6.4,100,15.13,0.0,1013.49,90.0
2018-09-17 04:00,50.6304416666667,-96.98077,12.7,17.9,326,986.44,6.3,100,15.11,0.0,1013.57,192.6
2018-09-17 04:10,50.6304416666667,-96.98077,13.1,17.5,328,986.55,6.2,100,15.10,0.0,1013.70,192.6
2018-09-17 04:20,50.63044,-96.98077,12.1,20.6,329,986.82,6.1,100,15.10,0.0,1013.98,192.6
2018-09-17 04:30,50.6304416666667,-96.98078,12.0,19.2,325,987.09,6.1,100,15.10,0.0,1014.26,192.6
2018-09-17 04:40,50.6304433333333,-96.980775,11.8,17.9,322,987.38,6.0,100,15.09,0.0,1014.57,192.6
2018-09-17 04:50,50.6304416666667,-96.980775,12.7,19.3,325,987.52,5.9,100,15.07,0.0,1014.72,192.6
2018-09-17 05:00,50.630445,-96.980765,12.3,18.6,326,987.64,6.0,100,15.06,0.0,1014.85,192.6
2018-09-17 05:10,50.6304566666667,-96.9807583333333,12.1,17.5,327,987.82,5.9,100,15.03,0.0,1015.04,192.6
2018-09-17 05:20,50.6304416666667,-96.9807933333333,11.8,16.1,329,987.99,5.9,100,15.00,0.0,1015.22,192.6
2018-09-17 05:30,50.6304483333333,-96.9807533333333,12.3,17.4,327,988.15,5.8,100,14.99,0.0,1015.39,192.6
2018-09-17 05:40,50.6304433333333,-96.9807683333333,13.7,19.4,336,988.30,5.9,100,14.99,0.0,1015.56,192.6
2018-09-17 05:50,50.63044,-96.9807666666667,12.9,19.6,329,988.60,5.8,100,14.97,0.0,1015.87,192.6
2018-09-17 06:00,50.63043,-96.98075,12.7,20.4,331,988.86,5.7,100,14.96,0.0,1016.14,161.1
2018-09-17 06:10,50.6304333333333,-96.9807583333333,12.9,20.1,323,989.06,5.7,100,14.92,0.0,1016.36,161.1
2018-09-17 06:20,50.6304266666667,-96.98076,12.6,18.8,323,989.30,5.6,100,14.89,0.0,1016.61,161.1
2018-09-17 06:30,50.630435,-96.98076,11.6,18.1,323,989.55,5.6,100,14.88,0.0,1016.88,161.1
2018-09-17 06:40,50.6304433333333,-96.98075,11.6,16.6,322,989.79,5.6,100,14.87,0.0,1017.12,161.1
2018-09-17 06:50,50.63045,-96.98077,12.3,17.2,323,989.88,5.5,100,14.82,0.0,1017.22,161.1
2018-09-17 07:00,50.6304433333333,-96.9807716666667,11.7,17.9,321,989.99,5.5,100,14.82,0.0,1017.33,270.0
2018-09-17 07:10,50.6304383333333,-96.980765,10.4,16.0,323,990.21,5.6,100,14.80,0.0,1017.56,270.0
2018-09-17 07:20,50.630455,-96.9807716666667,11.2,18.1,321,990.31,5.5,100,14.78,0.0,1017.66,270.0
2018-09-17 07:30,50.6304483333333,-96.9807666666667,11.3,16.2,324,990.48,5.4,100,14.78,0.0,1017.85,270.0
2018-09-17 07:40,50.6304416666667,-96.9807716666667,10.8,16.2,327,990.51,5.4,100,14.77,0.0,1017.89,270.0
2018-09-17 07:50,50.63044,-96.980775,10.6,14.4,333,990.44,5.3,100,14.74,0.0,1017.82,270.0
2018-09-17 08:00,50.6304516666667,-96.98076,11.1,17.3,332,990.36,5.2,100,14.72,0.0,1017.74,360.0
2018-09-17 08:10,50.6304433333333,-96.9807633333333,11.4,16.8,330,990.44,5.2,100,14.71,0.0,1017.83,360.0
2018-09-17 08:20,50.6304433333333,-96.9807716666667,11.5,16.2,325,990.54,5.1,100,14.70,0.0,1017.93,360.0
2018-09-17 08:30,50.630435,-96.980765,11.3,16.5,321,990.77,5.1,100,14.68,0.0,1018.18,360.0
2018-09-17 08:40,50.6304483333333,-96.98076,11.5,15.1,326,990.84,5.1,100,14.66,0.0,1018.25,360.0
2018-09-17 08:50,50.6304416666667,-96.9807666666667,10.8,15.1,333,990.56,5.2,100,14.65,0.0,1017.96,360.0
2018-09-17 09:00,50.63044,-96.98076,9.2,12.8,335,990.43,5.3,100,14.64,0.0,1017.81,360.0
2018-09-17 09:10,50.6304383333333,-96.9807583333333,10.3,14.8,333,990.37,5.4,100,14.63,0.0,1017.75,360.0
2018-09-17 09:20,50.630435,-96.9807483333333,11.5,21.0,354,990.17,5.8,100,14.61,0.0,1017.53,360.0
2018-09-17 09:30,50.6304316666667,-96.9807583333333,19.2,27.1,11,989.79,7.0,99,14.59,0.0,1017.08,360.0
2018-09-17 09:40,50.63043,-96.98076,20.6,25.7,17,989.69,7.4,99,14.58,0.0,1016.96,360.0
2018-09-17 09:50,50.63043,-96.980775,21.6,26.3,25,989.15,7.5,98,14.56,0.0,1016.40,360.0
2018-09-17 10:00,50.630435,-96.9807933333333,22.3,27.9,35,988.92,7.6,95,14.54,0.0,1016.17,253.2
2018-09-17 10:10,50.6304383333333,-96.9807633333333,21.7,26.9,35,989.07,7.6,97,14.52,0.0,1016.33,253.2
2018-09-17 10:20,50.6304316666667,-96.9807816666667,20.5,27.2,31,989.50,7.5,95,14.51,0.0,1016.77,253.2
2018-09-17 10:30,50.63044,-96.9807833333333,18.2,25.5,24,990.11,7.5,95,14.50,0.0,1017.40,253.2
2018-09-17 10:40,50.6304316666667,-96.9807766666667,17.3,22.8,22,990.55,7.6,95,14.48,0.0,1017.84,253.2
2018-09-17 10:50,50.6304333333333,-96.98076,16.2,22.8,26,990.91,7.5,95,14.47,0.0,1018.21,253.2
2018-09-17 11:00,50.6304333333333,-96.9807516666667,15.1,18.6,41,991.40,7.5,92,14.47,0.0,1018.71,360.0
2018-09-17 11:10,50.6304433333333,-96.9807683333333,12.1,16.4,33,992.04,7.4,90,14.46,0.0,1019.35,360.0
2018-09-17 11:20,50.630435,-96.9807633333333,13.7,18.2,30,992.10,7.3,92,14.45,0.0,1019.37,360.0
2018-09-17 11:30,50.630425,-96.9807716666667,12.3,16.6,27,992.25,7.3,92,14.44,0.0,1019.49,360.0
2018-09-17 11:40,50.6304266666667,-96.9807616666667,11.7,15.7,14,992.64,7.3,92,14.42,0.0,1019.89,360.0
2018-09-17 11:50,50.6304283333333,-96.9807616666667,11.4,16.1,13,992.78,7.2,92,14.40,0.0,1020.04,360.0
2018-09-17 12:00,50.6304316666667,-96.9807616666667,11.0,14.2,19,992.82,7.2,92,14.40,0.0,1020.08,360.0
2018-09-17 12:10,50.6304316666667,-96.9807616666667,6.4,13.4,341,992.88,6.7,96,14.40,0.0,1020.17,360.0
2018-09-17 12:20,50.6304366666667,-96.980755,6.0,10.3,319,992.97,5.4,100,14.40,0.0,1020.32,360.0
2018-09-17 12:30,50.630435,-96.9807616666667,6.9,10.6,304,993.23,4.9,100,14.40,0.0,1020.61,360.0
2018-09-17 12:40,50.63044,-96.9807666666667,7.5,11.8,308,993.50,4.7,100,14.40,0.0,1020.90,360.0
2018-09-17 12:50,50.6304433333333,-96.9807633333333,8.7,12.3,314,993.74,4.6,100,14.40,0.0,1021.15,360.0
2018-09-17 13:00,50.6304433333333,-96.9807633333333,9.2,13.3,329,993.56,4.7,100,14.38,0.0,1020.97,76.3
2018-09-17 13:10,50.6304433333333,-96.9807633333333,9.1,12.9,324,993.57,4.7,100,14.37,0.0,1020.98,76.3
2018-09-17 13:20,50.6304416666667,-96.9807633333333,9.5,14.0,322,993.71,4.6,100,14.37,0.0,1021.13,76.3
2018-09-17 13:30,50.6304216666667,-96.98074,9.6,14.7,335,993.32,4.7,100,14.36,0.0,1020.72,76.3
2018-09-17 13:40,50.6304533333333,-96.9807716666667,10.3,14.8,342,992.92,4.9,100,14.35,0.0,1020.32,76.3
2018-09-17 13:50,50.63044,-96.9807666666667,9.0,13.8,325,993.18,5.0,100,14.31,0.0,1020.57,76.3
2018-09-17 14:00,50.6304383333333,-96.9807683333333,9.8,13.7,327,993.24,5.1,100,14.23,0.0,1020.65,323.4
2018-09-17 14:10,50.63044,-96.9807683333333,7.8,11.9,319,993.76,5.2,100,14.17,0.0,1021.25,323.4
2018-09-17 14:20,50.6304366666667,-96.9807666666667,7.5,12.9,313,993.82,5.3,100,14.13,0.0,1021.33,323.4
2018-09-17 14:30,50.630435,-96.9807666666667,7.2,10.9,336,993.53,5.5,100,14.08,0.0,1021.02,323.4
2018-09-17 14:40,50.630405,-96.9807566666667,6.8,9.1,338,993.61,5.8,100,14.05,0.0,1021.10,323.4
2018-09-17 14:50,50.6304066666667,-96.9807633333333,7.3,11.5,345,993.66,6.1,100,14.06,0.0,1021.14,323.4
2018-09-17 15:00,50.63041,-96.9807566666667,8.9,14.7,14,993.59,6.4,100,14.06,0.0,1021.06,360.0
2018-09-17 15:10,50.6304116666667,-96.9807566666667,12.3,16.1,32,993.44,6.9,100,14.03,0.0,1020.87,360.0
2018-09-17 15:20,50.630415,-96.98076,13.6,17.0,36,993.31,6.9,100,14.04,0.0,1020.74,360.0
2018-09-17 15:30,50.630415,-96.98076,13.4,17.3,33,993.42,7.4,96,14.04,0.0,1020.82,360.0
2018-09-17 15:40,50.630405,-96.9807916666667,13.9,18.2,32,993.45,7.5,96,14.02,0.0,1020.84,360.0
2018-09-17 15:50,50.6304333333333,-96.98079,14.2,17.3,33,993.48,7.3,99,14.01,0.0,1020.87,360.0
2018-09-17 16:00,50.6304333333333,-96.9807816666667,14.0,17.3,38,993.47,7.3,99,14.02,0.0,1020.86,235.2
2018-09-17 16:10,50.6304366666667,-96.9807816666667,12.8,17.4,38,993.68,7.3,96,14.03,0.0,1021.06,235.2
2018-09-17 16:20,50.6304366666667,-96.9807833333333,10.4,15.5,40,993.97,7.3,91,14.03,0.0,1021.35,235.2
2018-09-17 16:30,50.6304333333333,-96.9807833333333,11.4,14.8,35,993.77,7.6,89,14.03,0.0,1021.12,235.2
2018-09-17 16:40,50.630435,-96.98078,11.8,15.5,42,993.48,7.7,87,14.03,0.0,1020.81,235.2
2018-09-17 16:50,50.6304266666667,-96.9808283333333,12.3,15.3,38,993.52,7.6,89,14.04,0.0,1020.83,235.2
2018-09-17 17:00,50.6304333333333,-96.9807833333333,11.9,15.5,34,993.69,7.7,91,14.06,0.0,1020.98,229.4
2018-09-17 17:10,50.6304333333333,-96.98078,13.5,17.4,37,993.46,7.7,93,14.07,0.0,1020.74,229.4
2018-09-17 17:20,50.63043,-96.9807766666667,13.6,17.7,28,993.27,7.7,89,14.10,0.0,1020.52,229.4
2018-09-17 17:30,50.6304383333333,-96.98078,12.8,15.4,33,993.39,7.7,85,14.08,0.0,1020.64,229.4
2018-09-17 17:40,50.6304316666667,-96.9807816666667,13.1,17.0,39,993.15,7.9,85,14.07,0.0,1020.40,229.4
2018-09-17 17:50,50.6304283333333,-96.9807766666667,14.2,18.0,37,992.88,7.9,86,14.08,0.0,1020.12,229.4
2018-09-17 18:00,50.63043,-96.9807766666667,13.7,17.1,40,992.49,7.9,87,14.09,0.0,1019.71,327.5
2018-09-17 18:10,50.63042,-96.980765,14.5,18.4,43,992.19,8.0,87,14.10,0.0,1019.40,327.5
2018-09-17 18:20,50.630435,-96.9807766666667,14.2,17.8,56,992.18,8.3,86,14.10,0.0,1019.37,327.5
2018-09-17 18:30,50.6304233333333,-96.9807866666667,13.0,17.1,62,992.08,8.4,84,14.10,0.0,1019.26,327.5
2018-09-17 18:40,50.6304266666667,-96.9807816666667,11.8,14.9,59,992.04,8.4,86,14.12,0.0,1019.22,327.5
2018-09-17 18:50,50.63043,-96.9807783333333,11.2,15.0,64,992.12,8.5,86,14.11,0.0,1019.29,327.5
2018-09-17 19:00,50.63043,-96.980775,9.5,12.5,55,992.47,8.7,85,14.08,0.0,1019.64,125.3
2018-09-17 19:10,50.63043,-96.980775,8.3,11.6,53,992.59,8.7,83,14.07,0.0,1019.76,125.3
2018-09-17 19:20,50.6304366666667,-96.98078,8.3,11.7,50,992.76,8.9,83,14.09,0.0,1019.92,125.3
2018-09-17 19:30,50.6304416666667,-96.9807816666667,7.7,10.5,51,992.80,8.8,82,14.10,0.0,1019.96,125.3
2018-09-17 19:40,50.6304433333333,-96.98078,7.4,10.1,57,992.72,8.9,81,14.12,0.0,1019.88,125.3
2018-09-17 19:50,50.63044,-96.9807783333333,5.4,8.1,33,992.92,9.0,80,14.12,0.0,1020.07,125.3
2018-09-17 20:00,50.6304383333333,-96.9807766666667,4.9,8.1,26,992.90,9.2,78,14.15,0.0,1020.04,36.6
2018-09-17 20:10,50.630475,-96.98082,5.4,8.6,30,992.91,9.2,77,14.16,0.0,1020.04,36.6
2018-09-17 20:20,50.63044,-96.9807733333333,4.8,7.2,30,992.90,9.4,77,14.18,0.0,1020.01,36.6
2018-09-17 20:30,50.63044,-96.9807733333333,4.0,7.3,45,992.96,9.4,76,14.17,0.0,1020.07,36.6
2018-09-17 20:40,50.6304383333333,-96.98077,4.1,6.7,63,992.90,9.6,75,14.20,0.0,1020.00,36.6
2018-09-17 20:50,50.6304366666667,-96.9807666666667,4.3,7.7,69,992.82,10.0,75,14.25,0.0,1019.88,36.6
2018-09-17 21:00,50.630435,-96.9807666666667,2.8,5.6,45,992.89,10.0,75,14.26,0.0,1019.95,14.5
2018-09-17 21:10,50.630435,-96.9807683333333,2.2,6.2,54,992.90,10.3,74,14.21,0.0,1019.95,14.5
2018-09-17 21:20,50.63045,-96.98076,4.8,8.4,58,992.60,10.4,75,14.16,0.0,1019.64,14.5
2018-09-17 21:30,50.6304416666667,-96.98077,5.0,7.5,61,992.42,10.1,75,14.18,0.0,1019.46,14.5
2018-09-17 21:40,50.6304433333333,-96.9807883333333,4.1,6.7,43,992.46,10.2,75,14.20,0.0,1019.49,14.5
2018-09-17 21:50,50.6304416666667,-96.9807583333333,4.4,7.7,31,992.26,10.1,76,14.20,0.0,1019.29,14.5
2018-09-17 22:00,50.6304433333333,-96.9807633333333,4.1,7.6,35,992.15,10.1,74,14.18,0.0,1019.17,23.5
2018-09-17 22:10,50.630445,-96.9807633333333,3.8,6.2,32,992.21,10.1,74,14.15,0.0,1019.22,23.5
2018-09-17 22:20,50.630445,-96.9807633333333,4.1,6.3,37,992.13,10.1,75,14.20,0.0,1019.14,23.5
2018-09-17 22:30,50.630445,-96.9807666666667,3.3,6.0,42,992.17,10.1,75,14.24,0.0,1019.17,23.5
2018-09-17 22:40,50.630405,-96.9807633333333,4.3,7.2,16,992.13,10.0,78,14.22,0.0,1019.12,23.5
2018-09-17 22:50,50.6304666666667,-96.9807766666667,5.0,7.3,32,992.10,10.0,78,14.23,0.0,1019.08,23.5
2018-09-17 23:00,50.6304416666667,-96.98077,4.2,6.5,27,991.89,10.0,78,14.21,0.0,1018.86,90.0
2018-09-17 23:10,50.6304466666667,-96.980775,3.7,5.8,27,991.90,10.0,77,14.24,0.0,1018.86,90.0
2018-09-17 23:20,50.630445,-96.98077,3.5,5.6,18,991.91,10.1,77,14.28,0.0,1018.88,90.0
2018-09-17 23:30,50.63045,-96.98077,3.4,5.4,20,991.98,10.1,76,14.22,0.0,1018.95,90.0
2018-09-17 23:40,50.6304466666667,-96.9807716666667,3.9,6.0,19,991.92,10.2,77,14.22,0.0,1018.89,90.0
